Weather in Semikarakorsk

Russia / Rostov Oblast     47°31′04″N   40°48′41″E
temp.,
°C
wind,
m/s
gust,
m/s
humid.,
%
clouds,
%
prec.,
mm/h
press.,
hPa
HPBL,
m
16 january, sun
sun1600:00−1wnw6118668 0.3 1004663
03:00−2wnw51186100 0.3 1007649
06:00−2wnw511869 0.0 1008500
09:00−2nw71073100 0.0 1012954
12:00−1nw7971100 0.1 10141095
15:00−1wnw5973100 0.1 10151210
18:00−2w4987100 0.1 1016314
21:00−2wnw379117 0.4 1018168
17 january, mon
mon1700:00−3wnw24956 0.0 101983
03:00−4wsw22945 0.0 101930
06:00−3sw36925 0.0 1018126
09:00−2sw49895 0.0 1018290
12:00+2sw7127235 0.0 10161172
15:00+2sw8137280 0.0 10141225
18:00+1sw71589100 0.0 1012602
21:00+2ssw71595100 0.1 1009809
18 january, tue
tue1800:00+1ssw101897100 0.4 1007993
03:00+2ssw101997100 1.0 10061245
06:00+2ssw112197100 2.0 10041225
09:00+1ssw122097100 4.5 1003971
12:00+1ssw81599100 5.3 1002720
15:000w71189100 6.0 1005743
18:00−2sw3887100 0.0 1008189
21:00−1wsw5993100 0.5 1010783
19 january, wed
wed1900:00−3sw3892100 0.1 1012360
03:00−4sw379167 0.1 1013196
06:00−3sw3593100 0.2 1014464
09:00−4wsw368443 0.4 1016574
12:00−2wsw5670100 0.0 10161079
15:00−2wsw467198 0.1 10161037
18:00−3nw2385100 0.1 1017182
21:00−4ene129299 0.1 1018101
20 january, thu
thu2000:00−4ese119398 0.1 101873
03:00−4nne1195100 0.6 1018173
06:00−5nnw3494100 0.8 1019325
09:00−6nnw339295 1.4 1020287
12:00−5nnw3387100 0.3 1020511
15:00−4nnw3385100 0.4 1021494
18:00−6nne249330 0.1 102293
21:00−8nne11965 0.1 102319